EW6287 Weather Reports


time (UTC)temp
F
wind
direction
speed
knots
gust
knots
rain 1hr
in
rain 24hr
in
rain mn
in
humidity
%
barometer
mb
20260903003009 72 0.0 0.0 0.00 0.00 0.00 66 1010.2
20260903001509 73 0.0 0.0 0.00 0.00 0.00 66 1010.1
20260903000009 73 0.0 0.0 0.00 0.00 0.00 64 1010.2
20260902234508 73 0.0 0.0 0.00 0.00 0.00 65 1010.2
20260902233022 74 0.0 0.0 0.00 0.00 0.00 62 1010.0
20260902231515 74 0.0 0.0 0.00 0.00 0.00 62 1009.9
20260902230008 75 0.0 0.0 0.00 0.00 0.00 60 1010.4
20260902224507 75 0.0 0.0 0.00 0.00 0.00 60 1010.3
20260902223007 75 0.0 0.0 0.00 0.00 0.00 59 1010.4
20260902221506 75 0.0 0.0 0.00 0.00 0.00 59 1010.5
20260902220007 75 0.0 0.0 0.00 0.00 0.00 62 1010.2
20260902214505 76 0.0 0.0 0.00 0.00 0.00 60 1010.2
20260902213006 76 0.0 0.0 0.00 0.00 0.00 60 1010.0
20260902211505 76 0.0 0.0 0.00 0.00 0.00 59 1010.5
20260902210005 76 0.0 0.0 0.00 0.00 0.00 58 1010.5
20260902204504 76 0.0 0.0 0.00 0.00 0.00 60 1010.3
20260902203003 76 0.0 0.0 0.00 0.00 0.00 59 1010.8
20260902201502 75 0.0 0.0 0.00 0.00 0.00 60 1010.8
20260902200002 75 0.0 0.0 0.00 0.00 0.00 61 1010.8
20260902194601 75 0.0 0.0 0.00 0.00 0.00 61 1010.6
20260902193100 75 0.0 0.0 0.00 0.00 0.00 63 1011.0
20260902191558 75 0.0 0.0 0.00 0.00 0.00 64 1010.9
20260902190058 74 0.0 0.0 0.00 0.00 0.00 65 1010.8
20260902184557 74 0.0 0.0 0.00 0.00 0.00 67 1011.1
20260902183058 73 0.0 0.0 0.00 0.00 0.00 68 1011.1
20260902181611 74 0.0 0.0 0.00 0.00 0.00 68 1011.0
20260902180100 75 0.0 0.0 0.00 0.00 0.00 70 1011.5
20260902174554 74 0.0 0.0 0.00 0.00 0.00 69 1011.3
20260902173051 73 0.0 0.0 0.00 0.00 0.00 74 1011.3
20260902171600 71 0.0 0.0 0.00 0.00 0.00 75 1011.7
20260902170047 71 0.0 0.0 0.00 0.00 0.00 76 1011.8
20260902164556 71 0.0 0.0 0.00 0.00 0.00 74 1011.8
20260902163049 71 0.0 0.0 0.00 0.00 0.00 74 1011.7
20260902161558 70 0.0 0.0 0.00 0.00 0.00 75 1011.8
20260902160045 69 0.0 0.0 0.00 0.00 0.00 78 1011.8
20260902154603 69 0.0 0.0 0.00 0.00 0.00 79 1011.4
20260902153047 71 0.0 0.0 0.00 0.00 0.00 76 1011.5
20260902151543 70 0.0 0.0 0.00 0.00 0.00 79 1011.7
20260902150042 70 0.0 0.0 0.00 0.00 0.00 80 1011.4
20260902144541 68 0.0 0.0 0.00 0.00 0.00 83 1011.1
20260902143015 67 0.0 0.0 0.00 0.00 0.00 83 1011.5
20260902141521 67 0.0 0.0 0.00 0.00 0.00 84 1011.6
20260902140053 66 0.0 0.0 0.00 0.00 0.00 84 1011.4
20260902134601 65 0.0 0.0 0.00 0.00 0.00 85 1011.4
20260902133100 64 0.0 0.0 0.00 0.00 0.00 87 1011.9
20260902131550 62 0.0 0.0 0.00 0.00 0.00 88 1011.7
20260902130052 61 0.0 0.0 0.00 0.00 0.00 89 1011.4
20260902124556 60 0.0 0.0 0.00 0.00 0.00 89 1011.6
20260902123049 60 0.0 0.0 0.00 0.00 0.00 90 1011.7
20260902121550 59 0.0 0.0 0.00 0.00 0.00 91 1011.3
20260902120047 59 0.0 0.0 0.00 0.00 0.00 91 1011.5
20260902114546 59 0.0 0.0 0.00 0.00 0.00 90 1011.0
20260902113046 59 0.0 0.0 0.00 0.00 0.00 90 1010.9
20260902111543 59 0.0 0.0 0.00 0.00 0.00 89 1011.1
20260902110041 60 0.0 0.0 0.00 0.00 0.00 89 1011.1
20260902104546 60 0.0 0.0 0.00 0.00 0.00 87 1010.8
20260902103045 60 0.0 0.0 0.00 0.00 0.00 86 1011.1
20260902101544 61 0.0 0.0 0.00 0.00 0.00 87 1011.2
20260902100038 61 0.0 0.0 0.00 0.00 0.00 86 1011.3
20260902094536 61 0.0 0.0 0.00 0.00 0.00 86 1010.9
20260902093042 61 0.0 0.0 0.00 0.00 0.00 87 1011.2
20260902091544 61 0.0 0.0 0.00 0.00 0.00 88 1010.8
20260902090033 62 0.0 0.0 0.00 0.00 0.00 87 1010.8
20260902084546 62 0.0 0.0 0.00 0.00 0.00 80 1010.5
20260902083040 63 0.0 0.0 0.00 0.00 0.00 78 1010.6
20260902081526 64 0.0 0.0 0.00 0.00 0.00 79 1010.4
20260902080027 64 0.0 0.0 0.00 0.00 0.00 76 1010.5
20260902074526 65 0.0 0.0 0.00 0.00 0.00 75 1010.6
20260902073025 65 0.0 0.0 0.00 0.00 0.00 74 1010.5
20260902071525 65 0.0 0.0 0.00 0.00 0.00 74 1010.8
20260902070022 64 0.0 0.0 0.00 0.00 0.00 79 1010.8
20260902064521 64 0.0 0.0 0.00 0.00 0.00 81 1010.9
20260902063028 64 0.0 0.0 0.00 0.00 0.00 84 1010.8
20260902061537 64 0.0 0.0 0.00 0.00 0.00 84 1011.0
20260902060022 64 0.0 0.0 0.00 0.00 0.00 83 1011.0
20260902054518 65 0.0 0.0 0.00 0.00 0.00 81 1011.1
20260902053018 65 0.0 0.0 0.00 0.00 0.00 81 1011.0
20260902051513 66 0.0 0.0 0.00 0.00 0.00 80 1011.0
20260902050012 66 0.0 0.0 0.00 0.00 0.00 78 1011.2
20260902044510 67 0.0 0.0 0.00 0.00 0.00 78 1011.1
20260902043010 67 0.0 0.0 0.00 0.00 0.00 77 1011.0
20260902041511 67 0.0 0.0 0.00 0.00 0.00 74 1011.0
20260902040010 67 0.0 0.0 0.00 0.00 0.00 74 1011.3
20260902034511 67 0.0 0.0 0.00 0.00 0.00 74 1011.0
20260902033009 67 0.0 0.0 0.00 0.00 0.00 74 1010.8
20260902031508 67 0.0 0.0 0.00 0.00 0.00 74 1011.1
20260902030009 68 0.0 0.0 0.00 0.00 0.00 75 1011.0
20260902024519 67 0.0 0.0 0.00 0.00 0.00 74 1011.0
20260902023008 67 0.0 0.0 0.00 0.00 0.00 74 1010.7
20260902021508 68 0.0 0.0 0.00 0.00 0.00 71 1010.9
20260902020008 68 0.0 0.0 0.00 0.00 0.00 70 1010.8
20260902014508 69 0.0 0.0 0.00 0.00 0.00 69 1010.7
20260902013006 70 0.0 0.0 0.00 0.00 0.00 67 1010.7
20260902011506 71 0.0 0.0 0.00 0.00 0.00 65 1010.5
20260902010015 71 0.0 0.0 0.00 0.00 0.00 64 1010.5
20260902004505 72 0.0 0.0 0.00 0.00 0.00 63 1010.2